EA7RX-4 Weather Reports


Display with metric or nautical units.
time (UTC)temp
F
wind
direction
speed
MPH
gust
MPH
rain 1hr
in
rain 24hr
in
rain mn
in
humidity
%
barometer
mb
20260503032003 53 129 7.0 13.0 0.00 0.55 0.01 91 1012.7
20260503031003 54 123 7.0 11.0 0.00 0.55 0.01 90 1012.8
20260503030003 54 130 6.0 11.0 0.00 0.55 0.01 90 1012.7
20260503025003 54 123 7.0 13.0 0.00 0.55 0.01 89 1012.6
20260503024003 54 124 6.0 9.0 0.00 0.55 0.01 89 1012.8
20260503023003 54 135 5.0 10.0 0.00 0.55 0.01 87 1012.8
20260503022003 54 137 6.0 9.0 0.00 0.55 0.01 86 1012.8
20260503021003 54 126 5.0 8.0 0.00 0.55 0.01 85 1012.9
20260503020003 54 132 4.0 8.0 0.00 0.55 0.01 85 1012.9
20260503015003 55 132 5.0 10.0 0.00 0.55 0.01 83 1013.0
20260503014003 55 121 4.0 8.0 0.00 0.55 0.01 83 1013.1
20260503013003 54 124 5.0 9.0 0.00 0.55 0.01 84 1013.0
20260503012003 54 116 4.0 7.0 0.00 0.55 0.01 86 1012.9
20260503011003 54 117 4.0 7.0 0.00 0.55 0.01 86 1013.1
20260503010003 54 113 4.0 6.0 0.00 0.55 0.01 86 1013.3
20260503005003 54 116 4.0 7.0 0.00 0.55 0.01 85 1013.3
20260503004003 54 120 4.0 7.0 0.00 0.55 0.01 86 1013.6
20260503003003 54 119 3.0 6.0 0.00 0.55 0.01 87 1013.3
20260503002003 55 144 2.0 3.0 0.01 0.55 0.01 85 1013.4
20260503001003 55 131 1.0 3.0 0.01 0.55 0.01 84 1013.8
20260503000003 54 125 3.0 4.0 0.01 0.55 0.01 84 1013.8
20260502235003 55 122 3.0 7.0 0.01 0.55 0.01 84 1013.9
20260502234003 56 174 1.0 4.0 0.01 0.55 0.01 79 1014.0
20260502233003 55 119 0.0 2.0 0.01 0.55 0.01 83 1014.0
20260502232003 56 131 1.0 3.0 0.00 0.54 0.00 80 1013.8
20260502231003 56 134 0.0 1.0 0.00 0.54 0.00 79 1014.0
20260502230003 57 262 1.0 3.0 0.00 0.54 0.00 78 1013.9
20260502225003 58 239 4.0 9.0 0.00 0.54 0.00 75 1014.2
20260502224003 58 206 5.0 9.0 0.00 0.54 0.00 72 1014.1
20260502223003 58 208 5.0 9.0 0.00 0.54 0.00 71 1014.2
20260502222003 56 170 2.0 3.0 0.00 0.54 0.00 76 1014.3
20260502221003 56 132 2.0 2.0 0.00 0.54 0.00 78 1014.3
20260502220003 56 133 2.0 4.0 0.00 0.54 0.00 77 1014.2
20260502215003 57 194 4.0 6.0 0.00 0.54 0.54 74 1014.5
20260502214003 56 182 3.0 6.0 0.00 0.54 0.54 74 1014.5
20260502213003 57 192 3.0 7.0 0.00 0.54 0.54 74 1014.2
20260502212003 57 196 3.0 4.0 0.00 0.54 0.54 73 1014.5
20260502211003 57 200 3.0 6.0 0.00 0.54 0.54 73 1014.4
20260502210003 56 191 4.0 7.0 0.00 0.54 0.54 74 1014.3
20260502205003 56 188 4.0 7.0 0.00 0.54 0.54 74 1014.1
20260502204003 57 202 4.0 8.0 0.00 0.54 0.54 74 1014.3
20260502203003 56 203 6.0 9.0 0.00 0.54 0.54 74 1014.0
20260502202003 57 203 5.0 8.0 0.00 0.54 0.54 74 1013.9
20260502201003 57 210 5.0 8.0 0.00 0.54 0.54 74 1013.9
20260502200003 56 204 5.0 7.0 0.00 0.54 0.54 76 1013.8
20260502195003 57 211 3.0 6.0 0.00 0.54 0.54 75 1013.7
20260502194003 57 205 3.0 4.0 0.00 0.54 0.54 77 1013.6
20260502193003 57 209 3.0 7.0 0.00 0.54 0.54 76 1013.6
20260502192003 57 217 3.0 7.0 0.00 0.54 0.54 76 1013.4
20260502191003 57 214 4.0 7.0 0.00 0.54 0.54 76 1013.7
20260502190003 57 218 5.0 10.0 0.00 0.54 0.54 75 1013.4
20260502185003 58 221 3.0 7.0 0.00 0.54 0.54 77 1013.1
20260502184003 57 215 5.0 9.0 0.00 0.54 0.54 77 1013.2
20260502183003 57 222 6.0 10.0 0.00 0.54 0.54 78 1013.2
20260502182003 57 230 4.0 8.0 0.00 0.54 0.54 76 1013.2
20260502181003 58 230 4.0 9.0 0.00 0.54 0.54 78 1013.4
20260502164003 61 261 8.0 15.0 0.00 0.54 0.54 75 1013.7
20260502163003 60 260 13.0 21.0 0.00 0.54 0.54 78 1013.8
20260502162003 61 251 13.0 27.0 0.00 0.54 0.54 75 1013.8
20260502161003 64 220 8.0 15.0 0.00 0.54 0.54 69 1013.6
20260502152003 63 267 3.0 7.0 0.00 0.54 0.54 81 1014.1
20260502151003 61 256 4.0 8.0 0.00 0.54 0.54 83 1013.9
20260502123003 61 146 10.0 19.0 0.00 0.01 0.01 74 1015.8
20260502122003 61 135 10.0 18.0 0.00 0.01 0.01 74 1015.7
20260502121003 61 149 8.0 16.0 0.00 0.01 0.01 74 1015.8
20260502115003 60 155 9.0 17.0 0.00 0.01 0.01 78 1016.5
20260502114003 60 151 8.0 15.0 0.00 0.01 0.01 77 1016.6
20260502113003 59 137 7.0 13.0 0.00 0.01 0.01 81 1016.7
20260502112003 59 147 6.0 11.0 0.00 0.01 0.01 82 1016.8
20260502111003 58 161 7.0 16.0 0.00 0.01 0.01 82 1017.0
20260502110003 59 150 7.0 16.0 0.00 0.01 0.01 81 1017.0
20260502105003 58 146 7.0 13.0 0.00 0.01 0.01 82 1017.3
20260502104003 58 153 7.0 14.0 0.00 0.01 0.01 83 1017.3
20260502103003 58 163 6.0 14.0 0.00 0.01 0.01 83 1017.7
20260502102003 58 140 9.0 17.0 0.00 0.01 0.01 83 1017.6
20260502101003 58 148 7.0 13.0 0.01 0.01 0.01 83 1017.5
20260502091003 56 134 7.0 11.0 0.00 0.00 0.00 89 1017.8
20260502071003 55 131 8.0 13.0 0.00 0.00 0.00 90 1017.7
20260502070003 55 124 7.0 14.0 0.00 0.00 0.00 88 1017.8
20260502065003 55 128 9.0 15.0 0.00 0.00 0.00 87 1017.7
20260502064003 55 125 11.0 17.0 0.00 0.00 0.00 87 1017.7
20260502063003 55 133 11.0 18.0 0.00 0.00 0.00 87 1017.3
20260502062003 55 129 11.0 18.0 0.00 0.00 0.00 87 1017.4
20260502061003 55 127 10.0 16.0 0.00 0.00 0.00 87 1017.3
20260502060003 55 132 12.0 17.0 0.00 0.00 0.00 86 1017.0
20260502055003 55 128 10.0 18.0 0.00 0.00 0.00 87 1016.8
20260502054003 55 132 10.0 16.0 0.00 0.00 0.00 87 1017.3
20260502053003 55 126 9.0 14.0 0.00 0.00 0.00 87 1017.3
20260502052003 55 128 9.0 15.0 0.00 0.00 0.00 87 1017.3
20260502051003 55 125 9.0 15.0 0.00 0.00 0.00 87 1017.1
20260502050003 55 129 10.0 14.0 0.00 0.00 0.00 86 1017.3
20260502045003 55 124 10.0 16.0 0.00 0.00 0.00 86 1017.1
20260502044003 55 130 10.0 17.0 0.00 0.00 0.00 86 1017.3
20260502043003 55 131 11.0 18.0 0.00 0.00 0.00 85 1016.8
20260502042003 56 124 12.0 21.0 0.00 0.00 0.00 85 1017.0
20260502041003 56 122 12.0 19.0 0.00 0.00 0.00 85 1017.3
20260502040003 56 122 11.0 17.0 0.00 0.00 0.00 85 1017.3
20260502035003 56 128 11.0 17.0 0.00 0.00 0.00 85 1017.5
20260502034003 56 123 13.0 19.0 0.00 0.00 0.00 84 1017.4
20260502033003 56 115 12.0 18.0 0.00 0.00 0.00 84 1017.1